GEFSCGP_500_meanwind_006.txt.gz
Wind_Speed
21 21 21 19 20 22 23 24 26 26 23 23 24 24 25 28 30 34 37 38 39 38 38 37 36 33 31 31 34 37 40 41 40 40 40 40 40 41 41 41 40 39 38 40
22 22 23 24 25 26 26 27 28 27 24 24 24 23 23 25 32 36 39 41 43 44 43 41 37 34 37 39 41 44 46 46 44 44 43 42 42 43 45 46 44 43 43 44
22 24 27 28 29 30 30 29 28 28 26 28 29 26 22 25 31 37 41 45 48 48 44 41 38 36 39 42 43 44 46 47 47 46 45 44 43 44 46 47 46 46 46 46
20 22 25 27 29 30 30 30 32 32 29 32 34 35 33 33 37 42 45 47 48 46 40 37 35 35 37 38 39 41 44 46 47 47 46 45 45 45 46 45 45 45 46 48
14 16 18 20 20 23 26 30 34 36 35 35 38 42 42 42 45 47 49 50 48 44 40 38 37 37 36 36 37 39 40 42 43 44 44 43 42 42 42 42 43 44 46 46
9 11 11 10 11 15 19 24 26 27 31 36 36 41 46 46 47 48 50 51 49 46 43 42 43 42 40 40 40 41 39 39 40 41 41 41 41 41 41 41 42 43 44 45
6 7 9 11 11 12 16 18 19 20 22 29 31 36 44 46 47 48 50 52 53 52 51 51 50 47 45 45 44 40 38 38 39 39 40 41 41 41 41 41 42 44 45 46
7 8 11 14 17 17 18 19 20 22 23 25 27 32 37 40 43 45 47 50 52 52 52 53 55 53 51 50 47 40 37 39 40 41 43 43 42 42 42 43 45 47 48 49
12 12 14 16 14 14 15 18 19 23 25 28 30 34 40 43 46 48 50 51 53 54 54 50 47 48 51 50 44 40 39 42 44 45 46 45 45 45 45 46 48 49 48 47
8 8 10 13 11 9 10 11 14 19 25 29 31 33 37 41 47 52 54 56 58 59 59 59 56 53 52 48 44 41 41 45 48 50 49 48 47 47 47 47 45 44 42 41
5 6 8 14 18 17 16 17 20 24 28 34 39 39 38 41 46 51 55 56 56 56 58 58 56 53 47 41 37 33 34 35 36 37 38 39 40 41 42 41 40 37 36 35
12 13 14 18 21 22 22 23 24 28 32 38 43 42 37 37 39 43 47 50 52 50 47 45 44 43 40 35 32 29 29 29 30 32 33 34 35 37 37 37 37 35 33 33
17 18 19 20 22 24 26 26 28 31 36 41 42 38 33 32 35 38 40 39 41 42 39 35 30 25 22 22 24 27 30 31 32 34 35 35 35 35 36 36 35 34 32 32
20 19 21 22 24 26 26 27 29 32 36 40 38 31 26 31 36 38 36 32 32 33 36 34 30 25 21 20 21 23 26 29 31 32 32 32 32 33 34 34 32 32 32 33
26 25 25 26 27 27 26 27 29 31 34 37 35 30 28 31 36 36 32 27 26 28 32 36 36 32 28 24 24 25 27 28 29 30 29 29 31 32 33 33 31 31 32 33
33 32 30 29 30 29 26 26 28 29 31 32 32 30 30 31 33 32 28 21 18 19 22 24 24 24 23 23 24 26 28 28 28 28 29 29 30 31 32 32 31 30 31 31
37 36 35 32 32 31 28 26 26 26 27 28 29 29 28 28 28 28 26 22 17 13 12 12 13 17 20 21 22 24 26 27 27 27 28 29 30 30 30 30 29 29 30 31
35 37 38 35 34 33 28 26 24 24 24 26 27 26 25 24 24 23 24 21 15 11 7 8 10 11 14 16 18 20 21 23 24 26 27 29 30 31 31 31 30 31 32 32
28 32 35 35 36 34 27 26 23 22 21 23 25 25 23 22 21 20 19 18 14 10 8 9 9 9 11 13 16 18 19 21 23 24 25 27 29 31 31 31 31 30 29 28
25 26 27 28 31 33 28 25 21 22 20 21 21 21 20 19 19 19 16 15 13 10 8 8 8 9 10 13 15 17 19 21 22 24 25 25 26 26 25 23 22 22 22 23
25 25 25 25 27 29 28 28 26 25 23 21 19 19 17 16 17 16 14 13 12 11 10 9 9 9 10 12 14 16 19 21 23 25 25 24 22 20 18 17 17 17 17 19
29 29 27 25 26 27 27 30 30 27 25 23 20 17 15 15 14 13 12 11 10 9 8 7 7 6 6 7 8 10 12 14 16 16 16 16 15 13 12 13 13 14 15 17
27 29 30 28 26 26 27 30 31 30 27 24 21 18 15 14 13 12 9 8 7 7 5 4 4 3 3 4 6 7 8 8 7 7 7 8 8 9 10 10 10 10 13 15
23 28 29 29 27 28 28 29 31 31 28 24 22 21 18 15 14 13 10 8 6 5 4 3 3 3 4 5 6 7 7 7 6 3 3 5 7 8 9 11 12 14 16 17
25 27 27 27 26 28 27 27 28 28 26 24 22 23 22 19 16 16 15 14 12 11 9 8 7 7 7 8 8 8 7 6 5 3 3 5 7 9 11 13 14 15 15 16
28 28 27 25 25 27 25 25 25 25 24 23 23 24 24 22 20 19 19 18 17 15 13 11 11 11 11 11 11 11 10 9 8 6 6 7 9 10 11 11 12 12 14 15

GEFSCGP_500_meanwind_012.txt.gz
Wind_Speed
17 18 20 21 22 24 25 26 26 30 35 38 41 42 43 43 42 41 40 39 38 36 34 34 32 33 34 35 35 36 38 39 41 43 44 45 46 46 44 43 42 41 40 39
20 22 22 22 23 23 24 23 23 23 26 29 31 33 34 35 36 37 37 38 38 38 38 37 37 36 36 36 37 39 41 43 45 46 47 48 48 48 48 47 45 43 42 40
23 23 22 22 23 23 24 26 26 26 26 28 29 30 32 32 33 33 33 33 33 34 36 37 36 36 36 37 39 41 44 45 46 47 48 48 48 48 49 48 46 44 42 39
21 22 22 22 22 23 24 26 27 28 28 29 31 33 33 34 35 35 35 34 34 35 36 38 39 39 39 41 43 44 45 45 46 46 47 47 47 48 48 46 43 41 39 38
19 20 21 21 22 23 24 25 27 28 29 29 30 33 35 35 37 38 39 40 40 41 42 43 44 45 47 48 50 51 49 47 45 44 44 44 45 45 45 42 39 38 36 34
14 16 18 19 21 22 21 22 23 24 24 26 26 30 33 34 37 40 44 45 46 48 50 51 52 53 53 54 55 55 54 54 52 48 43 43 43 42 40 36 34 34 33 33
9 11 13 15 16 18 19 20 22 22 22 23 23 25 24 24 28 33 38 43 47 50 53 56 58 59 60 60 60 59 58 57 54 53 48 43 42 40 37 35 35 34 34 34
9 11 13 13 15 15 17 19 21 22 21 19 18 19 16 18 22 25 29 33 37 42 47 51 55 58 60 61 62 61 61 59 57 53 49 45 43 41 39 37 36 36 36 36
11 12 13 13 13 14 13 14 16 17 15 14 12 12 14 20 23 24 27 29 32 36 40 46 51 55 59 61 62 62 61 59 56 53 50 44 42 41 40 38 38 38 38 39
8 8 8 9 11 13 14 15 17 18 20 20 17 16 20 24 25 26 29 31 33 35 37 40 44 48 53 56 58 60 61 59 55 52 49 46 41 38 38 37 37 38 39 41
8 8 9 12 14 16 17 18 19 21 23 25 25 19 24 27 28 31 33 35 36 38 40 43 46 48 50 51 51 49 49 51 49 46 43 41 39 36 34 34 34 36 37 37
12 13 14 16 19 20 22 22 23 25 26 27 30 26 27 31 31 33 34 36 38 40 42 45 46 46 45 43 40 36 34 36 37 37 36 35 34 33 31 30 31 32 32 31
19 20 21 22 23 25 26 26 28 29 30 30 31 29 30 33 33 34 36 37 39 40 41 43 42 40 37 32 29 27 28 29 31 31 30 30 29 28 27 28 29 29 30 30
25 25 26 27 28 30 31 31 32 34 34 35 33 32 30 32 33 34 35 37 38 39 39 40 38 35 29 25 24 25 25 27 28 29 30 29 28 27 27 28 29 29 29 29
27 28 28 29 29 31 32 32 35 37 37 38 35 34 32 32 31 31 33 35 36 36 36 36 33 28 23 20 19 20 22 22 23 24 26 26 25 26 27 27 28 28 28 29
26 27 27 27 27 30 30 30 34 37 37 37 37 34 33 31 30 30 30 32 34 33 31 30 27 22 17 16 15 15 17 17 18 20 22 23 25 25 26 26 26 27 29 29
24 25 26 25 26 28 27 27 31 33 34 35 35 33 32 30 29 29 28 29 31 30 27 25 23 20 16 13 12 13 14 15 17 18 20 22 24 25 25 26 26 27 28 28
23 25 27 27 27 27 26 28 31 33 32 31 33 33 32 30 28 28 26 27 27 26 23 21 19 17 15 12 11 11 13 14 15 16 18 20 22 23 24 25 27 28 28 28
24 26 28 30 31 28 23 27 32 33 29 28 33 33 32 31 29 28 26 24 24 23 21 18 17 15 13 11 9 9 9 11 13 14 17 19 20 22 24 25 26 26 25 24
26 28 29 31 32 30 28 28 30 31 28 28 32 33 33 33 31 28 25 22 21 20 18 15 14 13 12 11 9 8 9 10 11 13 15 18 20 21 21 21 19 18 17 16
26 28 29 31 32 31 31 30 30 31 31 30 30 30 32 34 33 31 26 21 19 18 16 14 12 11 10 8 8 8 8 9 11 12 14 15 16 16 16 15 15 14 13 12
28 31 33 33 33 32 32 32 33 33 32 31 30 30 30 29 31 31 27 22 18 16 15 13 11 10 8 7 6 6 7 7 8 9 9 9 8 7 7 8 9 9 9 10
29 34 36 36 35 35 35 35 35 35 34 32 31 30 29 28 28 30 28 23 19 17 15 13 12 10 9 8 7 7 7 8 8 8 7 6 4 3 4 5 7 7 8 9
33 36 36 35 35 36 37 37 36 36 36 34 32 31 29 28 27 29 29 26 22 20 18 16 15 14 13 12 11 10 10 9 9 9 8 6 5 5 5 6 7 8 9 11
39 40 40 38 36 36 36 37 38 38 37 35 34 32 30 29 27 28 29 28 25 23 21 20 18 17 16 15 14 13 12 11 11 10 9 9 8 8 8 9 10 11 12 13
42 42 43 41 39 37 36 37 38 38 37 35 34 32 30 29 28 28 29 29 27 26 24 23 22 20 18 17 16 16 15 13 12 12 12 12 12 12 12 13 13 14 14 14

GEFSCGP_500_meanwind_018.txt.gz
Wind_Speed
14 16 17 18 20 22 23 24 27 32 35 38 42 45 47 47 45 44 43 42 40 40 41 42 43 44 44 43 43 44 44 45 46 47 47 48 47 47 48 49 50 50 51 52
16 18 18 18 19 20 21 22 24 25 27 29 33 36 39 41 41 41 41 40 39 38 38 38 40 41 42 42 43 44 44 46 48 49 50 51 51 50 50 50 51 53 54 56
20 21 20 21 22 23 25 26 27 28 28 29 32 31 34 35 36 36 37 37 37 36 36 36 38 40 41 42 43 45 47 48 49 50 51 51 52 51 51 53 54 54 54 55
21 21 22 23 25 25 28 28 28 29 29 29 33 33 34 38 36 37 38 39 39 39 39 39 40 42 43 44 45 46 47 48 49 51 52 52 53 54 54 56 57 55 54 54
22 23 23 24 25 25 27 27 26 27 27 28 29 32 29 36 35 37 39 40 41 41 42 43 44 44 45 45 46 47 48 50 51 53 55 56 57 58 59 59 59 57 55 54
17 19 19 20 21 21 22 22 23 23 24 24 25 28 29 29 30 32 34 35 35 36 37 38 40 41 43 44 45 47 49 51 53 55 57 59 60 61 62 62 61 58 56 52
10 10 12 12 14 16 16 17 17 16 16 17 22 23 26 27 27 29 29 28 27 27 28 29 31 33 35 38 40 43 46 49 52 54 56 58 60 62 63 62 60 58 54 48
8 10 11 12 13 15 15 15 16 17 16 16 17 18 20 21 23 25 25 25 24 25 25 26 28 30 32 35 37 40 43 46 49 52 55 57 58 60 61 60 58 55 50 44
9 12 13 12 13 13 15 15 17 19 19 18 18 19 20 22 24 25 25 26 26 27 28 29 30 31 33 34 36 39 42 46 49 52 55 56 57 58 58 56 54 51 46 43
11 11 12 11 12 14 16 18 19 21 24 24 23 22 24 25 27 29 30 31 31 31 32 33 33 34 35 37 39 41 44 47 50 52 54 55 55 54 52 50 48 46 43 41
11 11 13 15 16 18 20 21 24 26 28 30 30 28 28 29 33 35 35 34 33 33 34 35 36 36 37 39 40 42 45 47 49 51 50 49 48 48 45 44 42 41 39 37
14 15 16 19 20 22 23 24 27 29 31 33 35 35 33 33 37 40 40 38 36 35 35 36 36 37 38 39 40 41 43 44 44 43 41 40 41 40 39 38 37 36 34 33
15 15 16 17 20 22 22 23 25 29 32 33 34 35 35 35 37 40 42 40 38 37 36 35 35 36 37 37 37 38 38 38 38 35 32 31 32 33 34 34 34 33 32 31
14 14 15 16 18 22 23 22 24 26 29 31 31 32 32 34 36 36 38 38 37 35 35 34 34 34 34 34 34 33 33 33 32 28 25 22 22 26 26 28 29 29 29 29
13 13 14 16 18 20 20 22 25 28 28 30 30 31 31 32 32 32 33 33 32 32 32 32 32 32 31 30 29 29 28 27 25 21 19 17 15 16 16 17 18 19 22 23
15 15 16 16 19 21 21 22 26 27 28 29 30 30 30 31 30 30 30 29 29 30 30 30 30 29 28 27 25 24 23 21 20 18 14 13 12 12 12 12 13 13 15 16
17 18 18 18 20 21 21 23 25 27 28 29 31 30 31 31 31 30 30 29 29 29 29 28 27 27 26 24 21 20 19 18 16 15 14 13 12 11 11 11 12 13 14 15
20 22 22 22 22 21 21 24 27 28 28 30 32 33 33 34 33 31 32 31 29 29 28 27 26 25 23 21 19 17 16 15 15 14 13 12 11 11 11 12 13 14 15 17
24 25 26 26 26 25 26 27 28 30 29 31 32 33 34 35 34 33 34 33 31 30 28 27 25 24 22 19 17 16 14 13 13 13 12 12 12 12 13 14 15 16 17 18
27 28 29 30 30 30 32 32 32 32 33 33 33 34 35 35 35 34 35 34 33 31 28 27 25 24 21 18 16 14 13 12 11 11 11 12 12 13 14 15 16 16 17 16
29 31 32 32 32 34 35 35 35 36 37 36 36 36 37 36 35 35 35 35 33 31 29 27 25 24 21 18 15 13 11 10 10 10 11 11 12 12 12 13 13 13 13 12
31 33 35 35 35 37 38 38 39 39 39 39 39 39 39 38 36 35 35 34 34 32 29 27 26 25 22 18 15 12 11 10 9 9 9 10 9 9 9 8 8 8 8 8
33 35 37 38 39 40 41 42 42 42 42 42 41 40 40 39 37 36 35 34 33 32 31 28 26 26 24 21 18 15 13 12 11 10 10 9 8 8 7 7 7 7 7 8
37 38 40 41 43 44 45 46 47 47 46 46 45 42 40 39 38 37 36 34 33 33 31 29 26 27 27 24 21 19 17 15 14 12 11 10 9 8 8 7 8 8 8 9
40 41 42 44 46 46 48 50 51 52 52 51 48 44 42 40 39 38 37 35 34 33 32 30 28 28 29 28 25 22 20 18 17 15 13 12 12 11 10 10 10 10 10 10
43 44 45 47 49 51 53 54 56 56 56 55 52 49 45 43 41 40 39 37 36 34 32 31 29 29 31 31 29 26 23 21 20 18 16 15 14 13 13 13 13 13 13 13

GEFSCGP_500_meanwind_024.txt.gz
Wind_Speed
6 8 5 9 17 20 21 22 22 20 24 33 35 32 25 25 34 39 41 40 39 40 43 43 41 41 44 45 45 44 45 46 46 44 43 42 43 44 45 46 46 47 48 49
2 6 12 14 14 14 14 17 19 17 22 28 29 27 25 25 30 35 37 37 37 39 40 39 39 39 39 40 40 40 40 41 42 42 42 42 43 44 46 47 47 48 50 51
6 11 13 11 13 13 12 13 17 21 25 26 27 27 24 24 28 34 36 37 37 36 37 38 39 39 38 39 39 40 40 41 42 43 43 44 45 46 47 49 50 50 52 53
11 16 16 15 14 16 16 18 24 26 26 26 24 27 22 20 26 33 37 36 34 34 35 36 38 39 41 41 42 43 44 45 46 47 48 49 49 50 50 51 52 53 54 54
9 16 16 15 16 20 22 23 25 24 23 22 18 21 18 17 24 29 32 32 35 36 36 37 37 38 39 40 41 43 44 45 47 48 49 50 51 51 51 52 53 54 55 55
11 15 15 14 16 18 18 17 16 15 15 16 16 18 15 19 25 29 34 38 40 40 38 37 36 36 36 37 37 38 39 40 41 43 45 46 47 49 50 51 52 53 54 54
7 8 10 12 11 13 14 14 11 8 9 15 16 18 18 22 26 30 33 37 39 39 38 36 34 33 34 34 35 35 35 36 37 39 41 43 45 47 49 51 53 54 55 55
7 8 9 12 13 14 13 12 11 13 12 13 15 18 20 26 30 31 31 33 36 38 39 39 37 36 36 36 37 37 37 37 38 40 42 44 46 49 51 53 55 56 57 57
10 10 11 13 12 12 12 10 12 15 15 14 12 13 22 29 32 34 35 37 39 41 42 42 42 41 41 41 41 41 41 41 42 43 44 46 48 50 52 54 55 55 56 57
10 11 10 14 14 13 14 14 16 18 19 19 15 15 23 29 32 38 41 42 43 43 43 43 44 44 44 44 44 44 44 44 44 45 46 47 48 50 51 52 53 54 55 55
10 11 9 11 14 14 16 17 20 22 23 23 22 18 20 28 33 38 40 41 41 41 42 44 44 44 45 44 45 45 45 45 45 45 46 46 47 47 47 48 48 49 50 50
12 12 11 11 12 15 16 18 20 21 21 22 24 21 20 27 31 36 40 40 40 40 42 43 43 43 43 43 43 43 43 43 43 43 43 43 42 42 42 42 42 41 40 39
10 11 10 8 11 14 17 19 21 23 24 24 25 23 21 29 34 38 40 40 39 39 41 42 41 41 41 40 40 40 39 39 39 39 39 38 37 36 35 34 32 29 28 28
8 8 9 9 11 15 18 20 22 25 27 27 27 28 27 31 34 36 37 38 39 40 40 41 40 39 39 38 38 37 36 35 35 35 34 32 32 31 29 28 25 22 21 20
7 8 9 10 12 15 17 18 21 24 25 28 28 29 31 34 36 37 37 38 40 40 41 41 41 40 38 37 36 35 34 33 32 31 30 29 28 26 24 22 19 18 15 13
9 10 11 12 15 17 18 20 22 22 24 27 30 31 35 37 38 38 38 39 40 41 41 41 41 40 39 37 36 34 32 31 30 29 27 26 25 22 20 17 14 12 10 8
15 15 15 15 17 19 21 22 25 24 25 29 33 36 39 39 38 38 38 40 41 41 40 40 40 40 39 38 36 34 32 30 29 28 25 23 22 19 17 15 12 10 8 6
18 20 22 22 23 24 21 28 31 30 31 34 37 39 40 40 40 39 41 43 43 43 42 41 41 40 40 39 37 34 31 29 28 27 24 21 19 17 16 14 11 10 8 7
22 24 26 27 28 28 26 34 35 34 37 40 41 43 44 44 43 42 44 44 44 44 44 43 42 41 40 38 37 34 31 29 28 26 23 20 18 17 15 13 12 11 10 9
30 29 30 30 31 32 35 39 40 40 44 45 46 48 49 49 50 48 47 46 46 46 45 44 43 41 39 38 36 35 32 29 28 26 23 19 17 16 15 13 12 11 11 11
33 35 35 36 37 37 43 44 44 45 48 48 49 50 51 51 51 52 51 50 49 48 46 45 44 42 39 37 36 34 32 29 27 25 22 19 17 15 15 13 12 11 11 10
35 36 37 38 40 42 45 47 47 49 51 52 53 55 56 56 55 55 55 53 51 50 48 46 44 42 39 37 36 34 32 29 27 25 23 20 18 16 14 12 11 11 10 9
38 39 40 42 43 45 47 49 51 53 55 57 59 60 62 63 63 62 60 58 54 51 48 46 44 41 40 37 35 34 32 30 28 27 24 21 19 17 15 13 12 11 10 9
38 39 41 44 46 48 50 52 54 57 60 63 65 66 67 68 68 67 65 61 57 53 50 47 45 42 41 39 36 35 32 31 30 29 27 24 21 18 17 15 13 12 10 9
40 40 42 45 47 50 53 56 59 61 64 66 67 69 70 71 71 70 68 64 61 58 54 50 49 46 43 42 39 35 33 31 32 32 30 27 24 21 19 17 15 13 11 10
42 44 46 49 53 56 58 61 63 66 67 69 71 73 73 74 74 73 71 68 65 62 58 53 50 47 44 43 40 36 34 33 33 34 33 30 27 24 22 20 17 15 14 13